UOSAT 2 (UO-11)

Last updated on Wed Nov 05 2025 00:03:08 GMT+0000 (Coordinated Universal Time)

1 14781U 84021B 25308.44872524 .00002191 00000+0 23322-3 0 9997 2 14781 97.7750 272.0896 0006982 195.7530 164.3471 14.89941771223652
UTC large
Height (km)
Speed (km/s)
/
Latitude / Longitude
Inclination (degrees)
Orbital Period (minutes)
Azimuth
Elevation
Range (km)
Doppler Factor

Next 0 passes for location: London (51.5072 / 0.1276)

Sorry there are no passes over London.